CYGNUS NG-12 (44701 NORAD) Tracking and Keplerian Element Data

This shows tracking and keplerian element data for the satellite.

Feedback or suggestion? Click here.




ElementValue
Catalog44701
NameCYGNUS NG-12
Epoch Orbit19827
Epoch Day316.56018176
Epoch Year2019
RAAN345.6284
Inclination51.6452
Eccentricity0.0006144
Argument of Perigee271.7699
Mean Anonmoly243.5183
Mean Motion15.50005035
Decay Rate5.076E-05
L11 44701U 19071A 19316.56018176 .00005076 00000-0 96839-4 0 9995
L22 44701 51.6452 345.6284 0006144 271.7699 243.5183 15.50005035198276

Live tracking and technical data element details for CYGNUS NG-12 (NORAD 44701). CYGNUS NG-12 can be tracked NOW for your location showing map with azimuth and elevation plus other details from your city location.

Track the satellite on the map from your city or location and see movement details for azimuth, elevation, latitude, longitude, range, height, and movement on the map or in text.







IsCatalogInMostPopularTable: catalog: 44701, numindb: 6
Update: records affected: 1



GetName: 44701 CYGNUS NG-12

Hit Count: updated at: Thu, 14 Nov 2019 06:07:59 GMT